Date String (YYYY-MM-DD hh:mm:ss) UTC,Instrument flags,Ambient pressure (hPa),Sample flow (lpm),Bypass flow (lpm),Sample temperature (°C),Ambient temperature (°C),ASC tube jacket temperature (°C),LED temperature (°C),Box temperature (°C),Sample RH (%),Span deviation,Mass concentration (μg/m³),Mass concentration (μg/m³),Mass concentration (μg/m³)
DateTimeUTC,F1_M11,P_M11,Q1_M11,Q2_M11,T1_M11,T2_M11,T3_M11,T4_M11,T5_M11,U1_M11,ZSPAN_M11,X0_M11,X2_M11,X1_M11
2022-04-24 03:00:00,,0819.9,4.99,0.00,22.8,21.7,00.0,31.8,24.6,11.1,0000.0,0002.72,0000.68,0000.44
2022-04-24 03:01:00,,0819.9,5.01,0.00,22.8,21.7,00.0,31.8,24.6,11.1,0000.0,0002.64,0000.65,0000.43
2022-04-24 03:02:00,,0819.9,5.02,0.00,22.8,21.7,00.0,31.8,24.6,11.0,0000.0,0002.60,0000.63,0000.42
2022-04-24 03:03:00,,0819.9,5.00,0.00,22.8,21.7,00.0,31.8,24.6,11.1,0000.0,0002.53,0000.59,0000.41
2022-04-24 03:04:00,,0820.0,5.00,0.00,22.8,21.7,00.0,31.8,24.5,11.1,0000.0,0002.69,0000.58,0000.40
2022-04-24 03:05:00,,0820.0,5.00,0.00,22.8,21.7,00.0,31.8,24.5,10.9,0000.0,0002.71,0000.55,0000.40
2022-04-24 03:06:00,,0820.0,5.01,0.00,22.7,21.7,00.0,31.8,24.6,10.9,0000.0,0002.60,0000.51,0000.39
2022-04-24 03:07:00,,0820.0,5.01,0.00,22.7,21.8,00.0,31.8,24.5,10.9,0000.0,0002.59,0000.51,0000.39
2022-04-24 03:08:00,,0820.0,5.00,0.00,22.7,21.8,00.0,31.7,24.4,11.0,0000.0,0002.66,0000.55,0000.40
2022-04-24 03:09:00,,0820.1,5.01,0.00,22.7,21.7,00.0,31.7,24.4,11.0,0000.0,0001.49,0000.57,0000.41
2022-04-24 03:10:00,,0820.1,4.99,0.00,22.7,21.7,00.0,31.7,24.5,10.9,0000.0,0001.22,0000.57,0000.40
2022-04-24 03:11:00,,0820.2,5.00,0.00,22.7,21.7,00.0,31.7,24.4,10.9,0000.0,0001.39,0000.57,0000.39
2022-04-24 03:12:00,,0820.2,4.99,0.00,22.7,21.7,00.0,31.7,24.4,10.9,0000.0,0001.62,0000.59,0000.39
2022-04-24 03:13:00,,0820.2,5.00,0.00,22.7,21.7,00.0,31.7,24.3,10.9,0000.0,0001.66,0000.60,0000.39
2022-04-24 03:14:00,,0820.3,5.01,0.00,22.7,21.6,00.0,31.7,24.3,10.9,0000.0,0001.72,0000.61,0000.39
2022-04-24 03:15:00,,0820.3,5.01,0.00,22.7,21.6,00.0,31.7,24.3,10.6,0000.0,0001.70,0000.63,0000.39
2022-04-24 03:16:00,,0820.2,5.00,0.00,22.7,21.6,00.0,31.7,24.4,10.6,0000.0,0001.61,0000.62,0000.39
2022-04-24 03:17:00,,0820.2,5.00,0.00,22.7,21.6,00.0,31.7,24.4,10.5,0000.0,0001.65,0000.64,0000.39
2022-04-24 03:18:00,,0820.3,4.99,0.00,22.7,21.6,00.0,31.7,24.4,10.4,0000.0,0001.56,0000.60,0000.38
2022-04-24 03:19:00,,0820.3,5.00,0.00,22.7,21.6,00.0,31.7,24.3,10.4,0000.0,0001.43,0000.54,0000.37
2022-04-24 03:20:00,,0820.4,5.00,0.00,22.7,21.6,00.0,31.7,24.3,10.5,0000.0,0001.43,0000.53,0000.36
2022-04-24 03:21:00,,0820.4,5.01,0.00,22.7,21.6,00.0,31.7,24.3,10.5,0000.0,0001.43,0000.53,0000.37
2022-04-24 03:22:00,,0820.4,5.00,0.00,22.7,21.6,00.0,31.7,24.3,10.5,0000.0,0001.27,0000.53,0000.36
2022-04-24 03:23:00,,0820.4,5.00,0.00,22.7,21.6,00.0,31.7,24.3,10.5,0000.0,0001.04,0000.51,0000.36
2022-04-24 03:24:00,,0820.5,5.00,0.00,22.7,21.7,00.0,31.7,24.4,10.5,0000.0,0001.06,0000.50,0000.35
2022-04-24 03:25:00,,0820.6,4.99,0.00,22.7,21.7,00.0,31.7,24.4,10.4,0000.0,0000.96,0000.49,0000.35
2022-04-24 03:26:00,,0820.6,4.99,0.00,22.7,21.7,00.0,31.7,24.4,10.5,0000.0,0000.76,0000.48,0000.35
2022-04-24 03:27:00,,0820.6,5.00,0.00,22.7,21.7,00.0,31.7,24.4,10.6,0000.0,0000.77,0000.48,0000.34
2022-04-24 03:28:00,,0820.6,5.00,0.00,22.7,21.7,00.0,31.7,24.4,10.6,0000.0,0000.73,0000.46,0000.34
2022-04-24 03:29:00,,0820.6,5.01,0.00,22.7,21.7,00.0,31.7,24.5,10.6,0000.0,0000.79,0000.47,0000.33
2022-04-24 03:30:00,,0820.7,4.99,0.00,22.7,21.6,00.0,31.7,24.5,10.7,0000.0,0000.92,0000.48,0000.33
2022-04-24 03:31:00,,0820.7,5.00,0.00,22.8,21.7,00.0,31.7,24.5,10.8,0000.0,0000.88,0000.46,0000.33
2022-04-24 03:32:00,,0820.7,5.01,0.00,22.8,21.7,00.0,31.7,24.5,10.9,0000.0,0000.87,0000.44,0000.32
2022-04-24 03:33:00,,0820.7,5.00,0.00,22.8,21.7,00.0,31.7,24.5,10.9,0000.0,0000.88,0000.44,0000.32
2022-04-24 03:34:00,,0820.7,4.99,0.00,22.8,21.7,00.0,31.7,24.5,10.9,0000.0,0000.92,0000.45,0000.32
2022-04-24 03:35:00,,0820.7,5.00,0.00,22.8,21.7,00.0,31.7,24.6,10.9,0000.0,0000.94,0000.46,0000.32
2022-04-24 03:36:00,,0820.7,5.00,0.00,22.8,21.8,00.0,31.7,24.6,10.9,0000.0,0000.87,0000.44,0000.32
2022-04-24 03:37:00,,0820.8,5.00,0.00,22.8,21.8,00.0,31.7,24.6,10.9,0000.0,0000.82,0000.41,0000.31
2022-04-24 03:38:00,,0820.8,5.02,0.00,22.8,21.7,00.0,31.7,24.5,10.8,0000.0,0000.78,0000.41,0000.30
2022-04-24 03:39:00,,0820.8,4.99,0.00,22.8,21.7,00.0,31.7,24.5,10.8,0000.0,0000.76,0000.39,0000.29
2022-04-24 03:40:00,,0820.9,5.00,0.00,22.8,21.8,00.0,31.8,24.6,10.8,0000.0,0000.76,0000.40,0000.29
2022-04-24 03:41:00,,0820.8,5.00,0.00,22.9,21.8,00.0,31.8,24.6,10.7,0000.0,0000.62,0000.39,0000.29
2022-04-24 03:42:00,,0820.8,5.01,0.00,22.9,21.8,00.0,31.8,24.6,10.6,0000.0,0000.63,0000.40,0000.29
2022-04-24 03:43:00,,0820.9,5.00,0.00,22.9,21.8,00.0,31.8,24.6,10.6,0000.0,0000.67,0000.42,0000.29
2022-04-24 03:44:00,,0820.8,4.99,0.00,22.9,21.8,00.0,31.8,24.6,10.7,0000.0,0000.75,0000.40,0000.29
2022-04-24 03:45:00,,0820.8,4.99,0.00,22.9,21.9,00.0,31.8,24.7,10.7,0000.0,0000.81,0000.39,0000.29
2022-04-24 03:46:00,,0820.9,4.99,0.00,22.9,21.9,00.0,31.8,24.7,10.7,0000.0,0000.76,0000.37,0000.28
2022-04-24 03:47:00,,0820.8,5.02,0.00,22.9,21.9,00.0,31.8,24.7,10.6,0000.0,0000.90,0000.40,0000.28
2022-04-24 03:48:00,,0820.8,5.00,0.00,22.9,21.9,00.0,31.8,24.8,10.6,0000.0,0000.95,0000.41,0000.28
2022-04-24 03:49:00,,0820.9,4.99,0.00,23.0,22.0,00.0,31.8,24.8,10.5,0000.0,0000.96,0000.41,0000.29
2022-04-24 03:50:00,,0820.8,5.00,0.00,23.0,22.0,00.0,31.8,24.8,10.6,0000.0,0000.98,0000.42,0000.29
2022-04-24 03:51:00,,0820.9,4.99,0.00,23.0,22.0,00.0,31.9,24.8,10.6,0000.0,0000.97,0000.42,0000.29
2022-04-24 03:52:00,,0821.0,5.02,0.00,23.0,22.0,00.0,31.9,24.8,10.5,0000.0,0001.01,0000.44,0000.29
2022-04-24 03:53:00,,0821.0,4.99,0.00,23.0,22.0,00.0,31.9,24.8,10.5,0000.0,0001.27,0000.46,0000.29
2022-04-24 03:54:00,,0820.9,5.00,0.00,23.0,22.0,00.0,31.9,24.7,10.5,0000.0,0001.35,0000.44,0000.29
2022-04-24 03:55:00,,0821.0,4.99,0.00,23.0,22.0,00.0,31.9,24.7,10.6,0000.0,0001.40,0000.45,0000.29
2022-04-24 03:56:00,,0820.9,5.00,0.00,23.0,21.9,00.0,31.9,24.8,10.6,0000.0,0001.30,0000.44,0000.29
2022-04-24 03:57:00,,0820.9,4.99,0.00,23.0,21.9,00.0,31.9,24.8,10.6,0000.0,0001.35,0000.45,0000.29
2022-04-24 03:58:00,,0820.9,5.01,0.00,23.0,21.9,00.0,31.9,24.7,10.6,0000.0,0001.27,0000.43,0000.29
2022-04-24 03:59:00,,0820.8,5.00,0.00,23.0,21.9,00.0,31.9,24.7,10.6,0000.0,0001.33,0000.43,0000.28
